Weather in Rakvere

Estonia     59°20′44″N   26°21′42″E
temp.,
°C
wind,
m/s
gust,
m/s
humid.,
%
clouds,
%
prec.,
mm/h
press.,
hPa
HPBL,
m
22 april, thu
thu2200:00+4ssw23884 0.0 100160
03:00+3sw2679100 0.0 1002127
06:00+2ssw277956 0.0 1002139
09:00+5ssw4779100 0.0 1002450
12:00+9sw465990 0.0 10041424
15:00+10sw4738100 0.0 10042331
18:00+9wsw3443100 0.0 10041781
21:00+6sw366485 0.1 1004191
23 april, fri
fri2300:00+3ssw2386100 0.2 100383
03:00+2ssw369585 0.3 1003263
06:00+2s3791100 2.9 1002695
09:00+3s467997 3.2 1002850
12:00+4sse3382100 0.4 1002826
15:00+4ssw347988 1.1 1003803
18:00+4w4693100 1.8 1005592
21:00+1sw388710 2.3 1006369
24 april, sat
sat2400:00−1ssw3794100 0.0 1006346
03:000ssw3689100 0.0 1006694
06:000s2495100 0.1 1005277
09:00+1ssw2394100 0.3 1005376
12:00+2wnw1288100 0.5 1006404
15:00+4nnw1178100 1.1 1006665
18:00+3n4690100 1.3 1007612
21:000nnw2594100 1.4 1008177
25 april, sun
sun2500:00−1nw2697100 0.0 1008196
03:00−1wnw259991 0.0 1008210
06:00+1nw3585100 0.0 1007578
09:00+2wnw359081 0.1 1007556
12:00+3wnw347691 0.3 10071003
15:00+3w4574100 0.5 10081032
18:00+3wnw458996 0.2 1008636
21:00+1wnw3799100 0.9 1008343
26 april, mon
mon2600:00+1wnw2598100 0.3 1009271
03:00+1w269797 0.4 1009335
06:00+1wnw3587100 0.0 1009411
09:00+2wnw3580100 0.0 1009792
12:00+3w4581100 0.1 1010846
15:00+4wnw4672100 0.1 10101024
18:00+3wnw4893100 0.1 1010604
21:00+2wnw3797100 0.2 1010559